NKS9985 KFLL-KGYR

Flight info

Callsign NKS9985
Flight time 4h 57m
Altitude 38000
Route BNICE2 DOLIE Y280 LEV J86 PEKON Q56 SAT J138 FST J2 ALIBY J50 SSO SUNSS8
Aircraft A321/M-SDE3FGHIRWY/LB1

Departure

Time 2026-05-07 14:16
Airport Fort Lauderdale Hollywood International Airport (KFLL)

Arrival

Time 2026-05-07 19:14
Airport Phoenix Goodyear Airport (KGYR)
Time Latitude Longitude Altitude Speed Heading
2026-05-07 13:37 26.06855 -80.14951 16 ft 0 kts 360°
2026-05-07 14:11 26.06868 -80.14951 16 ft 3 kts 360°
2026-05-07 14:11 26.06897 -80.14956 16 ft 5 kts 332°
2026-05-07 14:11 26.06912 -80.14999 16 ft 7 kts 273°
2026-05-07 14:12 26.06912 -80.15066 16 ft 10 kts 271°
2026-05-07 14:12 26.06877 -80.15128 16 ft 11 kts 194°
2026-05-07 14:12 26.06789 -80.15131 16 ft 14 kts 180°
2026-05-07 14:12 26.06706 -80.15149 20 ft 11 kts 229°
2026-05-07 14:13 26.06696 -80.15196 21 ft 11 kts 269°
2026-05-07 14:13 26.06695 -80.15292 17 ft 17 kts 270°
2026-05-07 14:13 26.06696 -80.15383 16 ft 18 kts 270°
2026-05-07 14:13 26.06697 -80.15534 16 ft 21 kts 270°
2026-05-07 14:14 26.06698 -80.15678 16 ft 18 kts 270°
2026-05-07 14:14 26.06694 -80.15791 16 ft 12 kts 252°
2026-05-07 14:14 26.06621 -80.15822 17 ft 8 kts 179°
2026-05-07 14:14 26.06592 -80.15800 18 ft 6 kts 108°
2026-05-07 14:15 26.06590 -80.15780 19 ft 0 kts 92°
2026-05-07 14:15 26.06590 -80.15779 19 ft 1 kts 92°
2026-05-07 14:15 26.06588 -80.15616 23 ft 60 kts 90°
2026-05-07 14:16 26.06583 -80.14831 21 ft 139 kts 90°
2026-05-07 14:16 26.06576 -80.13599 412 ft 164 kts 90°
2026-05-07 14:16 26.06586 -80.12346 1305 ft 161 kts 91°
2026-05-07 14:16 26.06693 -80.11114 2181 ft 160 kts 76°
2026-05-07 14:17 26.07199 -80.10012 2869 ft 161 kts 57°
2026-05-07 14:17 26.07824 -80.08962 3466 ft 169 kts 58°
2026-05-07 14:17 26.08519 -80.07803 3818 ft 192 kts 51°
2026-05-07 14:17 26.09650 -80.06867 4141 ft 217 kts 23°
2026-05-07 14:18 26.11156 -80.06262 4500 ft 243 kts 20°
2026-05-07 14:18 26.12830 -80.05601 5011 ft 265 kts 20°
2026-05-07 14:18 26.14654 -80.05096 5770 ft 275 kts
2026-05-07 14:18 26.16586 -80.05144 6596 ft 281 kts 350°
2026-05-07 14:19 26.18482 -80.05751 7385 ft 286 kts 341°
2026-05-07 14:19 26.20345 -80.06567 8192 ft 291 kts 333°
2026-05-07 14:19 26.21994 -80.07903 8984 ft 297 kts 315°
2026-05-07 14:19 26.23239 -80.09757 9775 ft 303 kts 297°
2026-05-07 14:20 26.24061 -80.11946 10369 ft 315 kts 291°
2026-05-07 14:20 26.24890 -80.14305 10619 ft 338 kts 291°
2026-05-07 14:20 26.25576 -80.16857 11140 ft 349 kts 281°
2026-05-07 14:20 26.25959 -80.19541 11888 ft 352 kts 279°
2026-05-07 14:21 26.26344 -80.22241 12702 ft 353 kts 279°
2026-05-07 14:21 26.26735 -80.24948 13531 ft 355 kts 280°
2026-05-07 14:21 26.27128 -80.27668 14286 ft 356 kts 280°
2026-05-07 14:21 26.27519 -80.30400 15000 ft 358 kts 280°
2026-05-07 14:22 26.27913 -80.33153 15728 ft 360 kts 280°
2026-05-07 14:22 26.28306 -80.35917 16443 ft 362 kts 280°
2026-05-07 14:22 26.28699 -80.38693 17179 ft 364 kts 280°
2026-05-07 14:22 26.29095 -80.41490 17923 ft 366 kts 280°
2026-05-07 14:23 26.29492 -80.44296 18618 ft 367 kts 280°
2026-05-07 14:23 26.29890 -80.47115 19263 ft 369 kts 280°
2026-05-07 14:23 26.30290 -80.49951 19903 ft 371 kts 280°
2026-05-07 14:23 26.30692 -80.52800 20551 ft 373 kts 280°
2026-05-07 14:24 26.31096 -80.55672 21189 ft 376 kts 280°
2026-05-07 14:24 26.31502 -80.58557 21829 ft 378 kts 280°
2026-05-07 14:24 26.31909 -80.61464 22483 ft 381 kts 279°
2026-05-07 14:24 26.32319 -80.64388 23123 ft 383 kts 279°
2026-05-07 14:25 26.32732 -80.67335 23737 ft 386 kts 279°
2026-05-07 14:25 26.33007 -80.69297 24074 ft 388 kts 279°
2026-05-07 14:25 26.33559 -80.73248 24745 ft 391 kts 279°
2026-05-07 14:25 26.33977 -80.76248 25237 ft 393 kts 279°
2026-05-07 14:26 26.34396 -80.79262 25729 ft 395 kts 279°
2026-05-07 14:26 26.34819 -80.82309 26213 ft 398 kts 279°
2026-05-07 14:26 26.35246 -80.85402 26705 ft 400 kts 279°
2026-05-07 14:26 26.35714 -80.88471 27175 ft 402 kts 284°
2026-05-07 14:27 26.36616 -80.91429 27629 ft 405 kts 294°
2026-05-07 14:27 26.38033 -80.94163 28073 ft 410 kts 304°
2026-05-07 14:27 26.39892 -80.96535 28518 ft 415 kts 314°
2026-05-07 14:27 26.42032 -80.98768 28969 ft 418 kts 314°
2026-05-07 14:28 26.44164 -81.00991 29416 ft 420 kts 314°
2026-05-07 14:28 26.46305 -81.03230 29859 ft 423 kts 314°
2026-05-07 14:28 26.48454 -81.05487 30267 ft 426 kts 314°
2026-05-07 14:28 26.50611 -81.07760 30624 ft 428 kts 314°
2026-05-07 14:29 26.52783 -81.10051 30982 ft 431 kts 314°
2026-05-07 14:29 26.54966 -81.12355 31347 ft 433 kts 314°
2026-05-07 14:29 26.57161 -81.14672 31726 ft 435 kts 314°
2026-05-07 14:29 26.59357 -81.16989 32254 ft 434 kts 314°
2026-05-07 14:30 26.61544 -81.19301 32831 ft 432 kts 314°
2026-05-07 14:30 26.63721 -81.21600 33388 ft 430 kts 314°
2026-05-07 14:30 26.65889 -81.23893 33928 ft 428 kts 314°
2026-05-07 14:30 26.68048 -81.26182 34410 ft 427 kts 314°
2026-05-07 14:31 26.70201 -81.28467 34866 ft 426 kts 314°
2026-05-07 14:31 26.72340 -81.30740 35327 ft 424 kts 314°
2026-05-07 14:31 26.74477 -81.33016 35793 ft 422 kts 314°
2026-05-07 14:31 26.76598 -81.35277 36267 ft 420 kts 314°
2026-05-07 14:32 26.78711 -81.37531 36728 ft 419 kts 314°
2026-05-07 14:32 26.80817 -81.39780 37167 ft 417 kts 314°
2026-05-07 14:32 26.82910 -81.42019 37593 ft 415 kts 314°
2026-05-07 14:32 26.84992 -81.44246 37976 ft 414 kts 314°
2026-05-07 14:33 26.87076 -81.46472 38077 ft 411 kts 314°
2026-05-07 14:33 26.91142 -81.50807 38092 ft 400 kts 314°
2026-05-07 14:34 26.95157 -81.55098 38091 ft 398 kts 314°
2026-05-07 14:34 26.99155 -81.59387 38090 ft 397 kts 314°
2026-05-07 14:35 27.03130 -81.63640 38097 ft 397 kts 314°
2026-05-07 14:35 27.07128 -81.67927 38105 ft 398 kts 313°
2026-05-07 14:36 27.11124 -81.72223 38111 ft 398 kts 313°
2026-05-07 14:36 27.15126 -81.76526 38116 ft 398 kts 313°
2026-05-07 14:37 27.19132 -81.80837 38120 ft 399 kts 313°
2026-05-07 14:37 27.25132 -81.87304 38132 ft 398 kts 313°
2026-05-07 14:38 27.28393 -81.92226 38128 ft 392 kts 294°
2026-05-07 14:38 27.29890 -81.98074 38122 ft 390 kts 282°
2026-05-07 14:39 27.31006 -82.04053 38115 ft 391 kts 282°
2026-05-07 14:39 27.32128 -82.10028 38114 ft 391 kts 282°
2026-05-07 14:40 27.33250 -82.16034 38115 ft 391 kts 282°
2026-05-07 14:40 27.34361 -82.22027 38118 ft 392 kts 282°
2026-05-07 14:41 27.35476 -82.28020 38118 ft 392 kts 282°
2026-05-07 14:41 27.36594 -82.34021 38119 ft 392 kts 282°
2026-05-07 14:42 27.37702 -82.40022 38127 ft 392 kts 282°
2026-05-07 14:42 27.38797 -82.45991 38120 ft 392 kts 282°
2026-05-07 14:43 27.39899 -82.51997 38134 ft 392 kts 282°
2026-05-07 14:43 27.41002 -82.58003 38134 ft 392 kts 282°
2026-05-07 14:44 27.42130 -82.64043 38134 ft 392 kts 282°
2026-05-07 14:44 27.43257 -82.70041 38113 ft 392 kts 282°
2026-05-07 14:45 27.44378 -82.76039 38115 ft 391 kts 282°
2026-05-07 14:45 27.45486 -82.81999 38115 ft 391 kts 282°
2026-05-07 14:46 27.46597 -82.87999 38115 ft 391 kts 282°
2026-05-07 14:46 27.47703 -82.93991 38114 ft 391 kts 282°
2026-05-07 14:47 27.48807 -82.99985 38113 ft 391 kts 282°
2026-05-07 14:47 27.49911 -83.05973 38110 ft 390 kts 282°
2026-05-07 14:48 27.51011 -83.11966 38112 ft 390 kts 282°
2026-05-07 14:48 27.52105 -83.17960 38109 ft 390 kts 282°
2026-05-07 14:49 27.53195 -83.23953 38107 ft 390 kts 282°
2026-05-07 14:49 27.54290 -83.29955 38108 ft 390 kts 282°
2026-05-07 14:50 27.55377 -83.35948 38110 ft 391 kts 282°
2026-05-07 14:50 27.56459 -83.41946 38108 ft 390 kts 282°
2026-05-07 14:51 27.57543 -83.47946 38108 ft 390 kts 282°
2026-05-07 14:51 27.58445 -83.52938 38108 ft 391 kts 282°
2026-05-07 14:52 27.59525 -83.58935 38102 ft 391 kts 281°
2026-05-07 14:52 27.60602 -83.64943 38103 ft 391 kts 281°
2026-05-07 14:53 27.61677 -83.70950 38103 ft 391 kts 281°
2026-05-07 14:53 27.62747 -83.76964 38101 ft 391 kts 281°
2026-05-07 14:54 27.63824 -83.82981 38099 ft 391 kts 281°
2026-05-07 14:54 27.64891 -83.88993 38099 ft 391 kts 281°
2026-05-07 14:55 27.65954 -83.95011 38102 ft 391 kts 281°
2026-05-07 14:55 27.67018 -84.01025 38102 ft 391 kts 281°
2026-05-07 14:56 27.68077 -84.07045 38102 ft 391 kts 281°
2026-05-07 14:56 27.69132 -84.13070 38102 ft 391 kts 281°
2026-05-07 14:57 27.70185 -84.19092 38099 ft 391 kts 281°
2026-05-07 14:57 27.71233 -84.25113 38099 ft 391 kts 281°
2026-05-07 14:58 27.72287 -84.31134 38103 ft 391 kts 281°
2026-05-07 14:58 27.73331 -84.37156 38100 ft 391 kts 281°
2026-05-07 14:59 27.74370 -84.43171 38099 ft 390 kts 281°
2026-05-07 14:59 27.75399 -84.49151 38098 ft 390 kts 281°
2026-05-07 15:00 27.76439 -84.55169 38098 ft 390 kts 281°
2026-05-07 15:00 27.77476 -84.61182 38099 ft 390 kts 281°
2026-05-07 15:01 27.78505 -84.67198 38103 ft 390 kts 281°
2026-05-07 15:01 27.79531 -84.73211 38102 ft 390 kts 281°
2026-05-07 15:02 27.80562 -84.79224 38100 ft 389 kts 281°
2026-05-07 15:02 27.81582 -84.85224 38096 ft 389 kts 280°
2026-05-07 15:03 27.82597 -84.91223 38096 ft 389 kts 280°
2026-05-07 15:03 27.83613 -84.97220 38094 ft 388 kts 280°
2026-05-07 15:04 27.84626 -85.03217 38090 ft 388 kts 280°
2026-05-07 15:04 27.85634 -85.09210 38088 ft 388 kts 280°
2026-05-07 15:05 27.86638 -85.15161 38092 ft 388 kts 280°
2026-05-07 15:05 27.87642 -85.21156 38091 ft 388 kts 280°
2026-05-07 15:06 27.88796 -85.27104 38089 ft 388 kts 288°
2026-05-07 15:06 27.90552 -85.32881 38091 ft 388 kts 288°
2026-05-07 15:07 27.92307 -85.38664 38092 ft 388 kts 287°
2026-05-07 15:07 27.94056 -85.44444 38090 ft 388 kts 287°
2026-05-07 15:08 27.95806 -85.50223 38090 ft 388 kts 287°
2026-05-07 15:08 27.97554 -85.56011 38090 ft 388 kts 287°
2026-05-07 15:09 27.99294 -85.61795 38088 ft 388 kts 287°
2026-05-07 15:09 28.01031 -85.67581 38101 ft 388 kts 287°
2026-05-07 15:10 28.02754 -85.73359 38097 ft 387 kts 287°
2026-05-07 15:10 28.04478 -85.79125 38094 ft 387 kts 287°
2026-05-07 15:11 28.06195 -85.84857 38091 ft 386 kts 287°
2026-05-07 15:11 28.07933 -85.90654 38087 ft 386 kts 287°
2026-05-07 15:12 28.09653 -85.96421 38086 ft 386 kts 287°
2026-05-07 15:12 28.11353 -86.02151 38086 ft 386 kts 287°
2026-05-07 15:13 28.13062 -86.07916 38083 ft 386 kts 287°
2026-05-07 15:13 28.14772 -86.13679 38084 ft 386 kts 287°
2026-05-07 15:14 28.16482 -86.19463 38081 ft 386 kts 287°
2026-05-07 15:14 28.18184 -86.25232 38084 ft 385 kts 287°
2026-05-07 15:15 28.19882 -86.30991 38087 ft 385 kts 287°
2026-05-07 15:15 28.21575 -86.36746 38083 ft 385 kts 287°
2026-05-07 15:16 28.23268 -86.42501 38082 ft 385 kts 287°
2026-05-07 15:16 28.24950 -86.48262 38082 ft 384 kts 287°
2026-05-07 15:17 28.26634 -86.54025 38079 ft 384 kts 287°
2026-05-07 15:17 28.28321 -86.59775 38080 ft 384 kts 287°
2026-05-07 15:18 28.29999 -86.65528 38082 ft 384 kts 287°
2026-05-07 15:18 28.31680 -86.71277 38082 ft 384 kts 287°
2026-05-07 15:19 28.33366 -86.77019 38105 ft 383 kts 286°
2026-05-07 15:19 28.35047 -86.82759 38096 ft 383 kts 286°
2026-05-07 15:20 28.36720 -86.88490 38091 ft 382 kts 286°
2026-05-07 15:20 28.38387 -86.94226 38089 ft 382 kts 286°
2026-05-07 15:21 28.40049 -86.99950 38092 ft 382 kts 286°
2026-05-07 15:21 28.41714 -87.05672 38092 ft 381 kts 286°
2026-05-07 15:22 28.43371 -87.11347 38085 ft 380 kts 286°
2026-05-07 15:22 28.45026 -87.17048 38082 ft 380 kts 286°
2026-05-07 15:23 28.46675 -87.22761 38085 ft 380 kts 286°
2026-05-07 15:23 28.48322 -87.28477 38084 ft 380 kts 286°
2026-05-07 15:24 28.49963 -87.34181 38088 ft 380 kts 285°
2026-05-07 15:24 28.51609 -87.39879 38087 ft 379 kts 285°
2026-05-07 15:25 28.53240 -87.45574 38083 ft 378 kts 285°
2026-05-07 15:25 28.54870 -87.51260 38082 ft 378 kts 285°
2026-05-07 15:26 28.56499 -87.56960 38082 ft 378 kts 285°
2026-05-07 15:26 28.58128 -87.62657 38085 ft 378 kts 285°
2026-05-07 15:27 28.59739 -87.68319 38082 ft 378 kts 285°
2026-05-07 15:27 28.61362 -87.74007 38078 ft 378 kts 285°
2026-05-07 15:28 28.62982 -87.79694 38081 ft 378 kts 285°
2026-05-07 15:28 28.64594 -87.85384 38080 ft 378 kts 285°
2026-05-07 15:29 28.66202 -87.91070 38092 ft 377 kts 285°
2026-05-07 15:29 28.67806 -87.96747 38083 ft 376 kts 285°
2026-05-07 15:30 28.69409 -88.02420 38083 ft 376 kts 285°
2026-05-07 15:30 28.71018 -88.08126 38082 ft 376 kts 285°
2026-05-07 15:31 28.72345 -88.12839 38085 ft 376 kts 284°
2026-05-07 15:31 28.73932 -88.18508 38077 ft 375 kts 284°
2026-05-07 15:32 28.75773 -88.25100 38081 ft 375 kts 284°
2026-05-07 15:32 28.77103 -88.29854 38076 ft 375 kts 284°
2026-05-07 15:33 28.78683 -88.35526 38076 ft 375 kts 284°
2026-05-07 15:33 28.80263 -88.41194 38073 ft 375 kts 284°
2026-05-07 15:34 28.81850 -88.46870 38075 ft 375 kts 284°
2026-05-07 15:34 28.83429 -88.52541 38076 ft 375 kts 284°
2026-05-07 15:35 28.84998 -88.58211 38076 ft 375 kts 284°
2026-05-07 15:35 28.86549 -88.63850 38071 ft 375 kts 284°
2026-05-07 15:36 28.88113 -88.69522 38074 ft 375 kts 284°
2026-05-07 15:36 28.89494 -88.75254 38076 ft 373 kts 281°
2026-05-07 15:37 28.90674 -88.81018 38075 ft 373 kts 280°
2026-05-07 15:37 28.91846 -88.86784 38078 ft 373 kts 280°
2026-05-07 15:38 28.93057 -88.92542 38075 ft 373 kts 281°
2026-05-07 15:38 28.94284 -88.98294 38076 ft 373 kts 281°
2026-05-07 15:39 28.95508 -89.04047 38103 ft 373 kts 280°
2026-05-07 15:39 28.96720 -89.09796 38093 ft 372 kts 280°
2026-05-07 15:40 28.97927 -89.15536 38083 ft 371 kts 280°
2026-05-07 15:40 28.99129 -89.21271 38078 ft 371 kts 280°
2026-05-07 15:41 29.00334 -89.27002 38078 ft 371 kts 280°
2026-05-07 15:41 29.01538 -89.32741 38071 ft 371 kts 280°
2026-05-07 15:42 29.02736 -89.38472 38073 ft 371 kts 280°
2026-05-07 15:42 29.03930 -89.44206 38072 ft 371 kts 280°
2026-05-07 15:43 29.05123 -89.49949 38070 ft 371 kts 280°
2026-05-07 15:43 29.06313 -89.55688 38070 ft 371 kts 280°
2026-05-07 15:44 29.07504 -89.61430 38070 ft 371 kts 280°
2026-05-07 15:44 29.08688 -89.67173 38072 ft 371 kts 280°
2026-05-07 15:45 29.09866 -89.72874 38064 ft 371 kts 280°
2026-05-07 15:45 29.11043 -89.78616 38065 ft 371 kts 279°
2026-05-07 15:46 29.12803 -89.87234 38067 ft 371 kts 280°
2026-05-07 15:47 29.13986 -89.93013 38064 ft 371 kts 279°
2026-05-07 15:47 29.15152 -89.98723 38070 ft 371 kts 280°
2026-05-07 15:48 29.16334 -90.04503 38068 ft 371 kts 279°
2026-05-07 15:48 29.17490 -90.10210 38065 ft 370 kts 279°
2026-05-07 15:49 29.18531 -90.15974 38068 ft 369 kts 277°
2026-05-07 15:49 29.19474 -90.21787 38069 ft 369 kts 277°
2026-05-07 15:50 29.20413 -90.27530 38065 ft 369 kts 277°
2026-05-07 15:50 29.21382 -90.33304 38064 ft 369 kts 277°
2026-05-07 15:51 29.22354 -90.39074 38077 ft 369 kts 277°
2026-05-07 15:51 29.23325 -90.44846 38071 ft 369 kts 277°
2026-05-07 15:52 29.24292 -90.50604 38071 ft 368 kts 277°
2026-05-07 15:52 29.25254 -90.56357 38077 ft 367 kts 277°
2026-05-07 15:53 29.26208 -90.62092 38073 ft 366 kts 277°
2026-05-07 15:53 29.27158 -90.67828 38070 ft 366 kts 277°
2026-05-07 15:54 29.28105 -90.73556 38062 ft 366 kts 277°
2026-05-07 15:54 29.29045 -90.79290 38068 ft 366 kts 276°
2026-05-07 15:55 29.29987 -90.85023 38067 ft 366 kts 276°
2026-05-07 15:55 29.30929 -90.90753 38065 ft 366 kts 276°
2026-05-07 15:56 29.31872 -90.96483 38068 ft 366 kts 276°
2026-05-07 15:56 29.32803 -91.02215 38066 ft 366 kts 276°
2026-05-07 15:57 29.33726 -91.07947 38073 ft 366 kts 276°
2026-05-07 15:57 29.34650 -91.13680 38074 ft 366 kts 276°
2026-05-07 15:58 29.35579 -91.19415 38071 ft 366 kts 276°
2026-05-07 15:58 29.36505 -91.25142 38078 ft 365 kts 276°
2026-05-07 15:59 29.37421 -91.30869 38079 ft 365 kts 276°
2026-05-07 15:59 29.38339 -91.36594 38079 ft 365 kts 276°
2026-05-07 16:00 29.39260 -91.42320 38082 ft 365 kts 276°
2026-05-07 16:00 29.40169 -91.48038 38082 ft 365 kts 276°
2026-05-07 16:01 29.41079 -91.53773 38097 ft 365 kts 276°
2026-05-07 16:01 29.41984 -91.59498 38090 ft 365 kts 276°
2026-05-07 16:02 29.42888 -91.65220 38086 ft 365 kts 276°
2026-05-07 16:02 29.43787 -91.70910 38081 ft 365 kts 276°
2026-05-07 16:03 29.44686 -91.76638 38080 ft 365 kts 276°
2026-05-07 16:03 29.45580 -91.82368 38079 ft 365 kts 276°
2026-05-07 16:04 29.46478 -91.88102 38077 ft 365 kts 276°
2026-05-07 16:04 29.47376 -91.93871 38082 ft 365 kts 276°
2026-05-07 16:05 29.48259 -91.99564 38079 ft 365 kts 276°
2026-05-07 16:05 29.49151 -92.05334 38078 ft 365 kts 276°
2026-05-07 16:06 29.50031 -92.11033 38074 ft 365 kts 276°
2026-05-07 16:06 29.50917 -92.16766 38074 ft 365 kts 276°
2026-05-07 16:07 29.51798 -92.22501 38077 ft 365 kts 276°
2026-05-07 16:07 29.52671 -92.28242 38096 ft 365 kts 275°
2026-05-07 16:08 29.53538 -92.33961 38084 ft 362 kts 275°
2026-05-07 16:08 29.54399 -92.39638 38075 ft 361 kts 275°
2026-05-07 16:09 29.55264 -92.45315 38079 ft 361 kts 275°
2026-05-07 16:09 29.56124 -92.50992 38072 ft 361 kts 275°
2026-05-07 16:10 29.56982 -92.56675 38078 ft 361 kts 275°
2026-05-07 16:10 29.57838 -92.62360 38086 ft 361 kts 275°
2026-05-07 16:11 29.58686 -92.68047 38092 ft 361 kts 275°
2026-05-07 16:11 29.59534 -92.73729 38095 ft 360 kts 275°
2026-05-07 16:12 29.60235 -92.78444 38096 ft 360 kts 275°
2026-05-07 16:12 29.61077 -92.84112 38098 ft 359 kts 275°
2026-05-07 16:13 29.61916 -92.89774 38106 ft 359 kts 275°
2026-05-07 16:13 29.62379 -92.95445 38099 ft 355 kts 268°
2026-05-07 16:14 29.62498 -93.01118 38099 ft 355 kts 268°
2026-05-07 16:14 29.62616 -93.06796 38113 ft 355 kts 268°
2026-05-07 16:15 29.62741 -93.12470 38109 ft 355 kts 268°
2026-05-07 16:15 29.62862 -93.18132 38106 ft 354 kts 268°
2026-05-07 16:16 29.62978 -93.23789 38107 ft 354 kts 268°
2026-05-07 16:16 29.63089 -93.29448 38099 ft 354 kts 268°
2026-05-07 16:17 29.63203 -93.35101 38097 ft 354 kts 268°
2026-05-07 16:17 29.63313 -93.40756 38110 ft 354 kts 268°
2026-05-07 16:18 29.63419 -93.46410 38096 ft 354 kts 268°
2026-05-07 16:18 29.63527 -93.52067 38108 ft 354 kts 268°
2026-05-07 16:19 29.63629 -93.57722 38100 ft 354 kts 267°
2026-05-07 16:19 29.63725 -93.63380 38094 ft 354 kts 268°
2026-05-07 16:20 29.63823 -93.69034 38096 ft 354 kts 267°
2026-05-07 16:20 29.63915 -93.74686 38105 ft 354 kts 267°
2026-05-07 16:21 29.64007 -93.80340 38101 ft 354 kts 267°
2026-05-07 16:21 29.64096 -93.85993 38102 ft 353 kts 267°
2026-05-07 16:22 29.64187 -93.91634 38095 ft 353 kts 267°
2026-05-07 16:22 29.64269 -93.97281 38095 ft 353 kts 267°
2026-05-07 16:23 29.64350 -94.02924 38096 ft 353 kts 267°
2026-05-07 16:23 29.64435 -94.08565 38098 ft 353 kts 267°
2026-05-07 16:24 29.64517 -94.14210 38101 ft 353 kts 267°
2026-05-07 16:24 29.64593 -94.19850 38121 ft 353 kts 267°
2026-05-07 16:25 29.64661 -94.25492 38112 ft 353 kts 267°
2026-05-07 16:25 29.64726 -94.31128 38109 ft 352 kts 267°
2026-05-07 16:26 29.64794 -94.36757 38106 ft 352 kts 267°
2026-05-07 16:26 29.64865 -94.42380 38102 ft 352 kts 267°
2026-05-07 16:27 29.64926 -94.48005 38101 ft 352 kts 267°
2026-05-07 16:27 29.64982 -94.53628 38101 ft 352 kts 267°
2026-05-07 16:28 29.65038 -94.59247 38110 ft 351 kts 266°
2026-05-07 16:28 29.65097 -94.64861 38106 ft 351 kts 266°
2026-05-07 16:29 29.65156 -94.70467 38104 ft 351 kts 266°
2026-05-07 16:29 29.65204 -94.76071 38102 ft 350 kts 266°
2026-05-07 16:30 29.65248 -94.81672 38095 ft 350 kts 266°
2026-05-07 16:30 29.65292 -94.87270 38093 ft 350 kts 266°
2026-05-07 16:31 29.65336 -94.92859 38092 ft 350 kts 266°
2026-05-07 16:31 29.65375 -94.98446 38101 ft 349 kts 266°
2026-05-07 16:32 29.65420 -95.04017 38092 ft 348 kts 266°
2026-05-07 16:32 29.65458 -95.09579 38087 ft 348 kts 266°
2026-05-07 16:33 29.65497 -95.15145 38092 ft 348 kts 266°
2026-05-07 16:33 29.65532 -95.20661 38091 ft 347 kts 266°
2026-05-07 16:34 29.65560 -95.26217 38094 ft 347 kts 266°
2026-05-07 16:34 29.65590 -95.31767 38089 ft 347 kts 266°
2026-05-07 16:35 29.65641 -95.37324 38107 ft 347 kts 266°
2026-05-07 16:35 29.65691 -95.42873 38097 ft 347 kts 266°
2026-05-07 16:36 29.65735 -95.48415 38091 ft 346 kts 266°
2026-05-07 16:36 29.65775 -95.53954 38087 ft 346 kts 266°
2026-05-07 16:37 29.65822 -95.59490 38084 ft 346 kts 266°
2026-05-07 16:37 29.65879 -95.65019 38101 ft 346 kts 266°
2026-05-07 16:38 29.65929 -95.70549 38101 ft 346 kts 266°
2026-05-07 16:38 29.65978 -95.76083 38105 ft 346 kts 266°
2026-05-07 16:39 29.66017 -95.81619 38094 ft 346 kts 266°
2026-05-07 16:39 29.66044 -95.87154 38111 ft 346 kts 266°
2026-05-07 16:40 29.66070 -95.92701 38108 ft 347 kts 266°
2026-05-07 16:40 29.66099 -95.98246 38095 ft 347 kts 266°
2026-05-07 16:41 29.66119 -96.03792 38085 ft 347 kts 266°
2026-05-07 16:41 29.66140 -96.09340 38054 ft 347 kts 266°
2026-05-07 16:42 29.66157 -96.14892 38070 ft 347 kts 265°
2026-05-07 16:42 29.66166 -96.20454 38091 ft 348 kts 265°
2026-05-07 16:43 29.66182 -96.26022 38107 ft 348 kts 265°
2026-05-07 16:43 29.66197 -96.31567 38111 ft 349 kts 265°
2026-05-07 16:44 29.66211 -96.37156 38114 ft 349 kts 265°
2026-05-07 16:44 29.66214 -96.42745 38107 ft 350 kts 265°
2026-05-07 16:45 29.66213 -96.48339 38087 ft 350 kts 265°
2026-05-07 16:45 29.66216 -96.53936 38062 ft 350 kts 265°
2026-05-07 16:46 29.66204 -96.59543 38006 ft 351 kts 265°
2026-05-07 16:46 29.66189 -96.65141 38007 ft 348 kts 265°
2026-05-07 16:47 29.66168 -96.70687 38033 ft 346 kts 264°
2026-05-07 16:47 29.66146 -96.76220 38030 ft 346 kts 264°
2026-05-07 16:48 29.66125 -96.81757 38026 ft 347 kts 264°
2026-05-07 16:48 29.66104 -96.87311 38059 ft 347 kts 264°
2026-05-07 16:49 29.66078 -96.92853 38060 ft 347 kts 264°
2026-05-07 16:49 29.66044 -96.98402 38060 ft 347 kts 264°
2026-05-07 16:50 29.66012 -97.03948 38085 ft 347 kts 264°
2026-05-07 16:50 29.65990 -97.08561 38086 ft 347 kts 264°
2026-05-07 16:51 29.65958 -97.14109 38083 ft 347 kts 264°
2026-05-07 16:51 29.65922 -97.19656 38115 ft 347 kts 264°
2026-05-07 16:52 29.65880 -97.25200 38120 ft 347 kts 264°
2026-05-07 16:52 29.65839 -97.30741 38135 ft 347 kts 264°
2026-05-07 16:53 29.65795 -97.36284 38134 ft 347 kts 264°
2026-05-07 16:53 29.65745 -97.41826 38136 ft 347 kts 264°
2026-05-07 16:54 29.65694 -97.47364 38135 ft 347 kts 264°
2026-05-07 16:54 29.65644 -97.52907 38133 ft 347 kts 264°
2026-05-07 16:55 29.65591 -97.58446 38134 ft 347 kts 264°
2026-05-07 16:55 29.65541 -97.63983 38130 ft 346 kts 264°
2026-05-07 16:56 29.65488 -97.69493 38121 ft 344 kts 264°
2026-05-07 16:56 29.65396 -97.77731 38112 ft 343 kts 264°
2026-05-07 16:57 29.65332 -97.83207 38111 ft 342 kts 264°
2026-05-07 16:57 29.65262 -97.88671 38107 ft 342 kts 264°
2026-05-07 16:58 29.65185 -97.94137 38104 ft 342 kts 264°
2026-05-07 16:58 29.65101 -97.99607 38150 ft 342 kts 264°
2026-05-07 16:59 29.65014 -98.05067 38146 ft 341 kts 264°
2026-05-07 16:59 29.64939 -98.10527 38143 ft 341 kts 264°
2026-05-07 17:00 29.64859 -98.15986 38139 ft 341 kts 264°
2026-05-07 17:00 29.64782 -98.21440 38137 ft 341 kts 264°
2026-05-07 17:01 29.64699 -98.26854 38135 ft 341 kts 264°
2026-05-07 17:01 29.64617 -98.32337 38129 ft 341 kts 264°
2026-05-07 17:02 29.64535 -98.37785 38116 ft 341 kts 264°
2026-05-07 17:02 29.64449 -98.43202 38110 ft 341 kts 264°
2026-05-07 17:03 29.65333 -98.48670 38142 ft 359 kts 284°
2026-05-07 17:03 29.67304 -98.53912 38138 ft 359 kts 284°
2026-05-07 17:04 29.69285 -98.59230 38131 ft 359 kts 284°
2026-05-07 17:04 29.71237 -98.64485 38123 ft 360 kts 284°
2026-05-07 17:05 29.73199 -98.69781 38120 ft 360 kts 284°
2026-05-07 17:05 29.75164 -98.75081 38119 ft 360 kts 284°
2026-05-07 17:06 29.77131 -98.80393 38129 ft 361 kts 284°
2026-05-07 17:06 29.79102 -98.85708 38137 ft 361 kts 284°
2026-05-07 17:07 29.81067 -98.91035 38148 ft 362 kts 284°
2026-05-07 17:07 29.83030 -98.96366 38140 ft 361 kts 284°
2026-05-07 17:08 29.85005 -99.01731 38149 ft 362 kts 284°
2026-05-07 17:08 29.86955 -99.07042 38166 ft 363 kts 284°
2026-05-07 17:09 29.88923 -99.12405 38188 ft 364 kts 284°
2026-05-07 17:09 29.90892 -99.17781 38176 ft 365 kts 284°
2026-05-07 17:10 29.92811 -99.23184 38172 ft 363 kts 282°
2026-05-07 17:10 29.94438 -99.28677 38163 ft 361 kts 279°
2026-05-07 17:11 29.95968 -99.34195 38157 ft 362 kts 280°
2026-05-07 17:11 29.97533 -99.39714 38125 ft 362 kts 280°
2026-05-07 17:12 29.99122 -99.45232 38120 ft 363 kts 280°
2026-05-07 17:12 30.00722 -99.50752 38111 ft 363 kts 279°
2026-05-07 17:13 30.02316 -99.56292 38101 ft 364 kts 279°
2026-05-07 17:13 30.03913 -99.61848 38106 ft 365 kts 279°
2026-05-07 17:14 30.05512 -99.67410 38146 ft 365 kts 279°
2026-05-07 17:14 30.07107 -99.72966 38145 ft 364 kts 279°
2026-05-07 17:15 30.08691 -99.78508 38138 ft 363 kts 279°
2026-05-07 17:15 30.10271 -99.84045 38149 ft 363 kts 279°
2026-05-07 17:16 30.11846 -99.89558 38140 ft 361 kts 279°
2026-05-07 17:16 30.13407 -99.95050 38143 ft 359 kts 279°
2026-05-07 17:17 30.14963 -100.00516 38139 ft 357 kts 279°
2026-05-07 17:17 30.16509 -100.05972 38136 ft 357 kts 279°
2026-05-07 17:18 30.18049 -100.11425 38133 ft 356 kts 279°
2026-05-07 17:18 30.19585 -100.16866 38129 ft 356 kts 279°
2026-05-07 17:19 30.21121 -100.22307 38143 ft 356 kts 279°
2026-05-07 17:19 30.22652 -100.27746 38142 ft 355 kts 279°
2026-05-07 17:20 30.24179 -100.33181 38133 ft 355 kts 279°
2026-05-07 17:20 30.25697 -100.38608 38129 ft 355 kts 279°
2026-05-07 17:21 30.27217 -100.44031 38125 ft 354 kts 279°
2026-05-07 17:21 30.28726 -100.49425 38124 ft 354 kts 279°
2026-05-07 17:22 30.30239 -100.54849 38124 ft 354 kts 279°
2026-05-07 17:22 30.31750 -100.60279 38136 ft 354 kts 279°
2026-05-07 17:23 30.33261 -100.65701 38129 ft 354 kts 279°
2026-05-07 17:23 30.34767 -100.71126 38130 ft 354 kts 279°
2026-05-07 17:24 30.36272 -100.76558 38128 ft 354 kts 279°
2026-05-07 17:24 30.37775 -100.81996 38126 ft 354 kts 279°
2026-05-07 17:25 30.39273 -100.87433 38129 ft 354 kts 279°
2026-05-07 17:25 30.40772 -100.92871 38126 ft 354 kts 279°
2026-05-07 17:26 30.42268 -100.98312 38125 ft 354 kts 279°
2026-05-07 17:26 30.43765 -101.03754 38136 ft 354 kts 279°
2026-05-07 17:27 30.45255 -101.09194 38145 ft 354 kts 279°
2026-05-07 17:27 30.46740 -101.14633 38156 ft 354 kts 279°
2026-05-07 17:28 30.48222 -101.20080 38182 ft 354 kts 278°
2026-05-07 17:28 30.49699 -101.25493 38119 ft 351 kts 278°
2026-05-07 17:29 30.51159 -101.30862 38126 ft 351 kts 278°
2026-05-07 17:29 30.52628 -101.36273 38126 ft 352 kts 278°
2026-05-07 17:30 30.53866 -101.40811 38119 ft 352 kts 278°
2026-05-07 17:30 30.55322 -101.46196 38120 ft 352 kts 278°
2026-05-07 17:31 30.56788 -101.51617 38120 ft 352 kts 278°
2026-05-07 17:31 30.58248 -101.57036 38122 ft 352 kts 278°
2026-05-07 17:32 30.59707 -101.62473 38123 ft 352 kts 278°
2026-05-07 17:32 30.61163 -101.67911 38129 ft 353 kts 278°
2026-05-07 17:33 30.62623 -101.73338 38126 ft 352 kts 278°
2026-05-07 17:33 30.64083 -101.78771 38123 ft 352 kts 278°
2026-05-07 17:34 30.65529 -101.84202 38126 ft 352 kts 278°
2026-05-07 17:34 30.66976 -101.89646 38122 ft 352 kts 278°
2026-05-07 17:35 30.68426 -101.95085 38127 ft 353 kts 278°
2026-05-07 17:35 30.69880 -102.00532 38134 ft 352 kts 277°
2026-05-07 17:36 30.71326 -102.05974 38127 ft 353 kts 277°
2026-05-07 17:36 30.72765 -102.11425 38119 ft 353 kts 277°
2026-05-07 17:37 30.74206 -102.16885 38123 ft 353 kts 277°
2026-05-07 17:37 30.75644 -102.22352 38116 ft 354 kts 277°
2026-05-07 17:38 30.77085 -102.27827 38114 ft 354 kts 277°
2026-05-07 17:38 30.78528 -102.33308 38118 ft 355 kts 277°
2026-05-07 17:39 30.79968 -102.38792 38111 ft 355 kts 277°
2026-05-07 17:39 30.81393 -102.44246 38119 ft 355 kts 277°
2026-05-07 17:40 30.82828 -102.49745 38108 ft 355 kts 277°
2026-05-07 17:40 30.84266 -102.55252 38124 ft 355 kts 277°
2026-05-07 17:41 30.85698 -102.60757 38143 ft 355 kts 277°
2026-05-07 17:41 30.87123 -102.66264 38161 ft 355 kts 277°
2026-05-07 17:42 30.88549 -102.71771 38182 ft 355 kts 277°
2026-05-07 17:42 30.89985 -102.77273 38205 ft 354 kts 277°
2026-05-07 17:43 30.91405 -102.82750 38203 ft 353 kts 276°
2026-05-07 17:43 30.92814 -102.88238 38201 ft 354 kts 276°
2026-05-07 17:44 30.94223 -102.93747 38077 ft 355 kts 276°
2026-05-07 17:44 30.95644 -102.99258 38085 ft 356 kts 277°
2026-05-07 17:45 30.97157 -103.04761 38085 ft 357 kts 278°
2026-05-07 17:45 30.98700 -103.10268 38088 ft 357 kts 278°
2026-05-07 17:46 31.00232 -103.15777 38098 ft 357 kts 277°
2026-05-07 17:46 31.01751 -103.21299 38097 ft 358 kts 277°
2026-05-07 17:47 31.03260 -103.26825 38102 ft 358 kts 277°
2026-05-07 17:47 31.04774 -103.32361 38100 ft 358 kts 277°
2026-05-07 17:48 31.06292 -103.37901 38106 ft 358 kts 277°
2026-05-07 17:48 31.07803 -103.43440 38121 ft 358 kts 277°
2026-05-07 17:49 31.09307 -103.48982 38124 ft 358 kts 277°
2026-05-07 17:49 31.10802 -103.54490 38134 ft 355 kts 277°
2026-05-07 17:50 31.12296 -103.60000 38131 ft 356 kts 277°
2026-05-07 17:50 31.13788 -103.65515 38134 ft 357 kts 277°
2026-05-07 17:51 31.15278 -103.71045 38130 ft 357 kts 277°
2026-05-07 17:51 31.16768 -103.76583 38126 ft 358 kts 277°
2026-05-07 17:52 31.18264 -103.82126 38120 ft 358 kts 277°
2026-05-07 17:52 31.19753 -103.87665 38110 ft 358 kts 276°
2026-05-07 17:53 31.21239 -103.93216 38119 ft 358 kts 276°
2026-05-07 17:53 31.22722 -103.98774 38119 ft 358 kts 276°
2026-05-07 17:54 31.24204 -104.04326 38120 ft 358 kts 276°
2026-05-07 17:54 31.25687 -104.09881 38118 ft 358 kts 276°
2026-05-07 17:55 31.27162 -104.15440 38119 ft 358 kts 276°
2026-05-07 17:55 31.28635 -104.20997 38119 ft 357 kts 276°
2026-05-07 17:56 31.30104 -104.26514 38104 ft 355 kts 276°
2026-05-07 17:56 31.31567 -104.32035 38099 ft 356 kts 276°
2026-05-07 17:57 31.32778 -104.36637 38090 ft 357 kts 276°
2026-05-07 17:57 31.34490 -104.43130 38095 ft 357 kts 276°
2026-05-07 17:58 31.35950 -104.48694 38105 ft 358 kts 276°
2026-05-07 17:58 31.37399 -104.54223 38096 ft 358 kts 276°
2026-05-07 17:59 31.38862 -104.59826 38099 ft 358 kts 276°
2026-05-07 17:59 31.40305 -104.65362 38088 ft 358 kts 276°
2026-05-07 18:00 31.41760 -104.70932 38089 ft 358 kts 276°
2026-05-07 18:00 31.43215 -104.76505 38094 ft 358 kts 276°
2026-05-07 18:01 31.44663 -104.82082 38094 ft 358 kts 276°
2026-05-07 18:01 31.46104 -104.87654 38093 ft 358 kts 275°
2026-05-07 18:02 31.48262 -104.96015 38069 ft 356 kts 275°
2026-05-07 18:03 31.49692 -105.01574 38064 ft 356 kts 275°
2026-05-07 18:03 31.51127 -105.07143 38070 ft 357 kts 276°
2026-05-07 18:04 31.52562 -105.12719 38058 ft 358 kts 276°
2026-05-07 18:04 31.53994 -105.18301 38054 ft 358 kts 276°
2026-05-07 18:05 31.55424 -105.23886 38050 ft 358 kts 276°
2026-05-07 18:05 31.56855 -105.29480 38071 ft 358 kts 275°
2026-05-07 18:06 31.58285 -105.35073 38056 ft 358 kts 275°
2026-05-07 18:06 31.59710 -105.40678 38049 ft 359 kts 275°
2026-05-07 18:07 31.61134 -105.46288 38048 ft 359 kts 275°
2026-05-07 18:07 31.62553 -105.51906 38040 ft 359 kts 275°
2026-05-07 18:08 31.63972 -105.57521 38043 ft 359 kts 275°
2026-05-07 18:08 31.65388 -105.63149 38067 ft 359 kts 275°
2026-05-07 18:09 31.66806 -105.68776 38021 ft 359 kts 275°
2026-05-07 18:09 31.67983 -105.73447 38014 ft 359 kts 275°
2026-05-07 18:10 31.69629 -105.80007 38001 ft 361 kts 275°
2026-05-07 18:10 31.70812 -105.84748 38007 ft 361 kts 275°
2026-05-07 18:11 31.72227 -105.90418 38020 ft 362 kts 275°
2026-05-07 18:11 31.73644 -105.96090 38005 ft 362 kts 275°
2026-05-07 18:12 31.75048 -106.01739 38055 ft 362 kts 275°
2026-05-07 18:12 31.76457 -106.07435 38063 ft 363 kts 275°
2026-05-07 18:13 31.77871 -106.13150 38085 ft 364 kts 275°
2026-05-07 18:13 31.79286 -106.18863 38112 ft 365 kts 275°
2026-05-07 18:14 31.80702 -106.24590 38135 ft 365 kts 275°
2026-05-07 18:14 31.81761 -106.30329 38151 ft 352 kts 266°
2026-05-07 18:15 31.82183 -106.36073 38175 ft 353 kts 266°
2026-05-07 18:15 31.82613 -106.41839 38124 ft 355 kts 266°
2026-05-07 18:16 31.83053 -106.47630 38127 ft 357 kts 266°
2026-05-07 18:16 31.83489 -106.53468 38106 ft 358 kts 266°
2026-05-07 18:17 31.83923 -106.59310 38145 ft 359 kts 266°
2026-05-07 18:17 31.84356 -106.65159 38157 ft 359 kts 266°
2026-05-07 18:18 31.84786 -106.71014 38174 ft 359 kts 266°
2026-05-07 18:18 31.85211 -106.76877 38165 ft 360 kts 266°
2026-05-07 18:19 31.85632 -106.82760 38158 ft 361 kts 266°
2026-05-07 18:19 31.86056 -106.88653 37975 ft 362 kts 266°
2026-05-07 18:20 31.86476 -106.94553 37973 ft 362 kts 266°
2026-05-07 18:20 31.86895 -107.00456 37979 ft 362 kts 266°
2026-05-07 18:21 31.87310 -107.06367 37996 ft 363 kts 266°
2026-05-07 18:21 31.87725 -107.12295 37977 ft 364 kts 266°
2026-05-07 18:22 31.88142 -107.18245 37971 ft 365 kts 266°
2026-05-07 18:22 31.88554 -107.24214 37967 ft 366 kts 266°
2026-05-07 18:23 31.88962 -107.30199 37975 ft 367 kts 266°
2026-05-07 18:23 31.89362 -107.36179 37971 ft 367 kts 266°
2026-05-07 18:24 31.89766 -107.42169 37989 ft 367 kts 266°
2026-05-07 18:24 31.90168 -107.48166 37975 ft 368 kts 266°
2026-05-07 18:25 31.90571 -107.54145 37967 ft 369 kts 266°
2026-05-07 18:25 31.90969 -107.60180 37967 ft 370 kts 266°
2026-05-07 18:26 31.91367 -107.66231 37993 ft 371 kts 267°
2026-05-07 18:26 31.91762 -107.72300 37985 ft 372 kts 266°
2026-05-07 18:27 31.92279 -107.78388 37976 ft 380 kts 274°
2026-05-07 18:27 31.93699 -107.84447 37951 ft 385 kts 278°
2026-05-07 18:28 31.95166 -107.90531 37947 ft 387 kts 278°
2026-05-07 18:28 31.96628 -107.96632 37952 ft 388 kts 277°
2026-05-07 18:29 31.98091 -108.02748 37955 ft 388 kts 277°
2026-05-07 18:29 31.99554 -108.08872 37959 ft 389 kts 277°
2026-05-07 18:30 32.01014 -108.15006 37965 ft 389 kts 277°
2026-05-07 18:30 32.02473 -108.21139 37983 ft 389 kts 277°
2026-05-07 18:31 32.03927 -108.27275 37965 ft 389 kts 277°
2026-05-07 18:31 32.05378 -108.33419 37964 ft 389 kts 277°
2026-05-07 18:32 32.06827 -108.39559 37964 ft 389 kts 277°
2026-05-07 18:32 32.08274 -108.45697 38003 ft 389 kts 278°
2026-05-07 18:33 32.09705 -108.51819 38011 ft 391 kts 278°
2026-05-07 18:33 32.11151 -108.58005 38028 ft 392 kts 278°
2026-05-07 18:34 32.12599 -108.64212 38051 ft 393 kts 278°
2026-05-07 18:34 32.14046 -108.70436 38066 ft 393 kts 278°
2026-05-07 18:35 32.15501 -108.76662 37948 ft 393 kts 278°
2026-05-07 18:35 32.16950 -108.82897 37956 ft 394 kts 278°
2026-05-07 18:36 32.18397 -108.89150 37943 ft 396 kts 278°
2026-05-07 18:36 32.19844 -108.95426 37945 ft 396 kts 278°
2026-05-07 18:37 32.21289 -109.01715 37953 ft 397 kts 278°
2026-05-07 18:37 32.22740 -109.08017 37965 ft 398 kts 278°
2026-05-07 18:38 32.24190 -109.14352 37804 ft 402 kts 278°
2026-05-07 18:38 32.24919 -109.17548 37536 ft 404 kts 278°
2026-05-07 18:38 32.25652 -109.20760 37275 ft 405 kts 279°
2026-05-07 18:38 32.26388 -109.23978 37015 ft 406 kts 279°
2026-05-07 18:39 32.27123 -109.27197 36762 ft 407 kts 279°
2026-05-07 18:39 32.27885 -109.30424 36505 ft 408 kts 280°
2026-05-07 18:39 32.28675 -109.33651 36268 ft 409 kts 280°
2026-05-07 18:39 32.29477 -109.36879 36013 ft 410 kts 281°
2026-05-07 18:40 32.30284 -109.40118 35765 ft 410 kts 281°
2026-05-07 18:40 32.31086 -109.43357 35526 ft 411 kts 280°
2026-05-07 18:40 32.31882 -109.46601 35303 ft 412 kts 281°
2026-05-07 18:40 32.32678 -109.49873 35064 ft 415 kts 281°
2026-05-07 18:41 32.33473 -109.53167 34831 ft 418 kts 281°
2026-05-07 18:41 32.34271 -109.56473 34596 ft 419 kts 281°
2026-05-07 18:41 32.35071 -109.59790 34367 ft 420 kts 281°
2026-05-07 18:41 32.35875 -109.63111 34132 ft 421 kts 281°
2026-05-07 18:42 32.36684 -109.66445 33906 ft 421 kts 281°
2026-05-07 18:42 32.37491 -109.69777 33640 ft 422 kts 282°
2026-05-07 18:42 32.38300 -109.73130 33369 ft 425 kts 282°
2026-05-07 18:42 32.39112 -109.76503 33109 ft 427 kts 282°
2026-05-07 18:43 32.39925 -109.79883 32856 ft 428 kts 282°
2026-05-07 18:43 32.40742 -109.83279 32624 ft 431 kts 283°
2026-05-07 18:43 32.41561 -109.86697 32362 ft 433 kts 283°
2026-05-07 18:43 32.42386 -109.90136 32108 ft 434 kts 283°
2026-05-07 18:44 32.43211 -109.93581 31854 ft 435 kts 283°
2026-05-07 18:44 32.44034 -109.97031 31600 ft 436 kts 283°
2026-05-07 18:44 32.44857 -110.00481 31345 ft 436 kts 283°
2026-05-07 18:44 32.45682 -110.03944 31109 ft 437 kts 283°
2026-05-07 18:45 32.46502 -110.07402 30865 ft 437 kts 283°
2026-05-07 18:45 32.47323 -110.10870 30620 ft 438 kts 284°
2026-05-07 18:45 32.48144 -110.14345 30404 ft 437 kts 284°
2026-05-07 18:45 32.48965 -110.17812 30151 ft 436 kts 285°
2026-05-07 18:46 32.49780 -110.21249 29571 ft 432 kts 285°
2026-05-07 18:46 32.50591 -110.24659 29038 ft 427 kts 285°
2026-05-07 18:46 32.51390 -110.28028 28503 ft 423 kts 285°
2026-05-07 18:46 32.52180 -110.31368 27977 ft 419 kts 285°
2026-05-07 18:47 32.52960 -110.34679 27469 ft 416 kts 286°
2026-05-07 18:47 32.53733 -110.37971 26957 ft 413 kts 286°
2026-05-07 18:47 32.54498 -110.41241 26470 ft 410 kts 286°
2026-05-07 18:47 32.55256 -110.44488 25992 ft 408 kts 286°
2026-05-07 18:48 32.56012 -110.47722 25543 ft 406 kts 286°
2026-05-07 18:48 32.56763 -110.50935 25077 ft 403 kts 287°
2026-05-07 18:48 32.57504 -110.54101 24641 ft 401 kts 287°
2026-05-07 18:48 32.58248 -110.57277 24188 ft 398 kts 287°
2026-05-07 18:49 32.58985 -110.60431 23732 ft 397 kts 287°
2026-05-07 18:49 32.59730 -110.63625 23128 ft 403 kts 287°
2026-05-07 18:49 32.60475 -110.66829 22589 ft 402 kts 286°
2026-05-07 18:49 32.61215 -110.70019 22052 ft 400 kts 286°
2026-05-07 18:50 32.61949 -110.73187 21525 ft 397 kts 286°
2026-05-07 18:50 32.62431 -110.75271 21180 ft 395 kts 286°
2026-05-07 18:50 32.63153 -110.78398 20664 ft 391 kts 286°
2026-05-07 18:50 32.63869 -110.81495 20155 ft 388 kts 286°
2026-05-07 18:51 32.64580 -110.84573 19622 ft 385 kts 286°
2026-05-07 18:51 32.65282 -110.87623 19117 ft 381 kts 286°
2026-05-07 18:51 32.65976 -110.90647 18611 ft 378 kts 286°
2026-05-07 18:51 32.66664 -110.93644 18102 ft 375 kts 285°
2026-05-07 18:52 32.67448 -110.96577 17565 ft 370 kts 294°
2026-05-07 18:52 32.68655 -110.99242 17093 ft 363 kts 306°
2026-05-07 18:52 32.70233 -111.01541 16606 ft 357 kts 315°
2026-05-07 18:52 32.71919 -111.03699 16140 ft 355 kts 315°
2026-05-07 18:53 32.73587 -111.05841 15671 ft 352 kts 314°
2026-05-07 18:53 32.75241 -111.07972 15202 ft 349 kts 314°
2026-05-07 18:53 32.76879 -111.10090 14740 ft 347 kts 314°
2026-05-07 18:53 32.78505 -111.12195 14281 ft 344 kts 314°
2026-05-07 18:54 32.80115 -111.14285 13822 ft 342 kts 314°
2026-05-07 18:54 32.81712 -111.16359 13335 ft 339 kts 314°
2026-05-07 18:54 32.83298 -111.18415 12879 ft 336 kts 314°
2026-05-07 18:54 32.84872 -111.20456 12427 ft 334 kts 314°
2026-05-07 18:55 32.86437 -111.22486 11986 ft 332 kts 314°
2026-05-07 18:55 32.87991 -111.24506 11543 ft 329 kts 314°
2026-05-07 18:55 32.89526 -111.26503 11114 ft 325 kts 314°
2026-05-07 18:55 32.91048 -111.28481 10679 ft 323 kts 314°
2026-05-07 18:56 32.92560 -111.30442 10257 ft 320 kts 313°
2026-05-07 18:56 32.94043 -111.32367 10053 ft 309 kts 313°
2026-05-07 18:56 32.95474 -111.34227 9810 ft 301 kts 313°
2026-05-07 18:56 32.96870 -111.36044 9648 ft 296 kts 313°
2026-05-07 18:57 32.98257 -111.37852 9343 ft 295 kts 313°
2026-05-07 18:57 32.99634 -111.39648 8996 ft 293 kts 313°
2026-05-07 18:57 33.00984 -111.41411 8920 ft 292 kts 313°
2026-05-07 18:57 33.02358 -111.43207 8929 ft 294 kts 313°
2026-05-07 18:58 33.03755 -111.45029 8931 ft 294 kts 313°
2026-05-07 18:58 33.05103 -111.46861 8929 ft 294 kts 306°
2026-05-07 18:58 33.05980 -111.49029 8932 ft 296 kts 291°
2026-05-07 18:58 33.06666 -111.51375 8931 ft 296 kts 289°
2026-05-07 18:59 33.07326 -111.53699 8927 ft 295 kts 289°
2026-05-07 18:59 33.07970 -111.55979 8927 ft 293 kts 289°
2026-05-07 18:59 33.08615 -111.58271 8967 ft 292 kts 289°
2026-05-07 18:59 33.09260 -111.60570 8970 ft 293 kts 289°
2026-05-07 19:00 33.09907 -111.62873 8972 ft 293 kts 289°
2026-05-07 19:00 33.10551 -111.65173 8974 ft 293 kts 289°
2026-05-07 19:00 33.11192 -111.67464 8763 ft 290 kts 289°
2026-05-07 19:00 33.11828 -111.69743 8522 ft 290 kts 289°
2026-05-07 19:01 33.12466 -111.72021 8275 ft 289 kts 289°
2026-05-07 19:01 33.13100 -111.74298 8033 ft 289 kts 289°
2026-05-07 19:01 33.13734 -111.76574 7792 ft 288 kts 289°
2026-05-07 19:01 33.14364 -111.78839 7551 ft 287 kts 289°
2026-05-07 19:02 33.14990 -111.81098 7303 ft 286 kts 289°
2026-05-07 19:02 33.15611 -111.83351 7068 ft 285 kts 289°
2026-05-07 19:02 33.16227 -111.85598 6826 ft 285 kts 289°
2026-05-07 19:02 33.16840 -111.87841 6584 ft 284 kts 289°
2026-05-07 19:03 33.17452 -111.90080 6360 ft 283 kts 289°
2026-05-07 19:03 33.18063 -111.92314 6113 ft 283 kts 289°
2026-05-07 19:03 33.18672 -111.94546 5858 ft 282 kts 289°
2026-05-07 19:03 33.19277 -111.96773 5606 ft 282 kts 289°
2026-05-07 19:04 33.19882 -111.99001 5364 ft 282 kts 289°
2026-05-07 19:04 33.20484 -112.01222 5119 ft 281 kts 289°
2026-05-07 19:04 33.21084 -112.03448 4978 ft 282 kts 289°
2026-05-07 19:04 33.21682 -112.05673 4972 ft 282 kts 289°
2026-05-07 19:05 33.22284 -112.07909 4965 ft 282 kts 289°
2026-05-07 19:05 33.22886 -112.10127 4962 ft 280 kts 289°
2026-05-07 19:05 33.23487 -112.12337 4963 ft 280 kts 289°
2026-05-07 19:05 33.24098 -112.14547 4961 ft 281 kts 290°
2026-05-07 19:06 33.24875 -112.16645 4900 ft 273 kts 298°
2026-05-07 19:06 33.26636 -112.20595 4422 ft 267 kts 299°
2026-05-07 19:06 33.27519 -112.22541 4185 ft 266 kts 300°
2026-05-07 19:07 33.28397 -112.24475 4017 ft 264 kts 300°
2026-05-07 19:07 33.29254 -112.26368 3988 ft 255 kts 299°
2026-05-07 19:07 33.30086 -112.28191 3989 ft 244 kts 299°
2026-05-07 19:07 33.30902 -112.29968 3999 ft 244 kts 300°
2026-05-07 19:08 33.31717 -112.31748 3999 ft 245 kts 299°
2026-05-07 19:08 33.32535 -112.33534 4006 ft 241 kts 300°
2026-05-07 19:08 33.33390 -112.35158 3932 ft 223 kts 316°
2026-05-07 19:08 33.34676 -112.36034 3746 ft 210 kts 352°
2026-05-07 19:09 33.36073 -112.35851 3554 ft 201 kts 28°
2026-05-07 19:09 33.37243 -112.34960 3374 ft 198 kts 38°
2026-05-07 19:09 33.38318 -112.33976 3153 ft 192 kts 39°
2026-05-07 19:09 33.39359 -112.32992 2904 ft 189 kts 39°
2026-05-07 19:10 33.40369 -112.32036 2693 ft 179 kts 39°
2026-05-07 19:10 33.41306 -112.31153 2559 ft 166 kts 39°
2026-05-07 19:10 33.42202 -112.30313 2534 ft 161 kts 39°
2026-05-07 19:10 33.43159 -112.29697 2487 ft 149 kts 15°
2026-05-07 19:11 33.44146 -112.29705 2427 ft 139 kts 349°
2026-05-07 19:11 33.45009 -112.30167 2335 ft 135 kts 326°
2026-05-07 19:11 33.45721 -112.30891 2172 ft 135 kts 311°
2026-05-07 19:11 33.46152 -112.31892 1990 ft 137 kts 284°
2026-05-07 19:12 33.46179 -112.33002 1869 ft 132 kts 258°
2026-05-07 19:12 33.45826 -112.33988 1732 ft 131 kts 233°
2026-05-07 19:12 33.45221 -112.34804 1560 ft 132 kts 223°
2026-05-07 19:12 33.44507 -112.35504 1367 ft 134 kts 217°
2026-05-07 19:13 33.43769 -112.36187 1159 ft 134 kts 219°
2026-05-07 19:13 33.43039 -112.36873 980 ft 130 kts 218°
2026-05-07 19:13 33.42443 -112.37431 973 ft 85 kts 218°
2026-05-07 19:13 33.42083 -112.37767 964 ft 55 kts 218°
2026-05-07 19:14 33.41916 -112.37923 966 ft 14 kts 218°
2026-05-07 19:14 33.41845 -112.37912 965 ft 11 kts 132°
2026-05-07 19:14 33.41849 -112.37821 964 ft 14 kts 49°
2026-05-07 19:14 33.41925 -112.37747 960 ft 16 kts 38°
2026-05-07 19:15 33.42024 -112.37653 960 ft 20 kts 39°
2026-05-07 19:15 33.42139 -112.37548 963 ft 22 kts 38°
2026-05-07 19:15 33.42244 -112.37449 965 ft 14 kts 38°
2026-05-07 19:15 33.42328 -112.37371 966 ft 16 kts 38°
2026-05-07 19:16 33.42425 -112.37280 965 ft 20 kts 38°
2026-05-07 19:16 33.42544 -112.37169 968 ft 23 kts 38°
2026-05-07 19:16 33.42651 -112.37069 965 ft 21 kts 38°
2026-05-07 19:16 33.42745 -112.36981 964 ft 11 kts 37°
2026-05-07 19:17 33.42788 -112.36908 965 ft 11 kts 101°
2026-05-07 19:17 33.42756 -112.36878 962 ft 5 kts 186°
2026-05-07 19:17 33.42726 -112.36887 964 ft 4 kts 180°
2026-05-07 19:17 33.42708 -112.36875 965 ft 3 kts 137°
2026-05-07 19:18 33.42698 -112.36860 963 ft 2 kts 128°
2026-05-07 19:18 33.42684 -112.36832 961 ft 6 kts 116°
2026-05-07 19:18 33.42678 -112.36788 963 ft 1 kts 49°
2026-05-07 19:18 33.42688 -112.36787 962 ft 0 kts
2026-05-07 19:20 33.42646 -112.36738 962 ft 0 kts 218°
2026-05-07 19:30 33.42645 -112.36738 964 ft 1 kts 220°